Location: Chavannes
(47.1090°N, 0.2226°W)
Time: 13:56:45
(UTC+00:00)

SL-16 R/B - Pass Details

Date: 16 October 2021
Orbit: 842 x 846 km, 71.0° (Epoch: 02 December)

Event Time Altitude Azimuth Distance (km) Brightness Sun altitude
Rises 18:04:33 0° 146° (SE) 3,388 5.0 -9.8°
Reaches altitude 10° 18:08:41 10° 116° (ESE) 2,461 4.1 -10.5°
Enters shadow 18:09:12 11° 111° (ESE) 2,402 4.0 -10.6°
